Regional Weather Roundup
Issued by NWS Sioux Falls, SD

Home | Current Version | Previous Version | Graphics & Text | Print | Product List | Glossary On
Versions: 1 2 3 4 5 6 7 8 9 10 11 12 13 14 15 16 17 18 19 20 21 22 23 24 25 26 27 28 29 30 31 32 33 34 35 36 37 38 39 40 41 42 43 44 45 46 47 48 49 50
000
ASUS43 KFSD 290502
RWRFSD

WEATHER ROUNDUP FOR SE SOUTH DAKOTA/SW MINNESOTA/NW IOWA
NATIONAL WEATHER SERVICE SIOUX FALLS SD
1200 AM CDT SAT AUG 29 2015

NOTE: "FAIR" INDICATES FEW OR NO CLOUDS BELOW 12,000 FEET WITH NO
SIGNIFICANT WEATHER AND OR OBSTRUCTIONS TO VISIBILITY.


SDZ038>040-050-052>070-290600-
SOUTHEAST SOUTH DAKOTA

CITY           SKY/WX    TMP DP  RH WIND       PRES   REMARKS
BROOKINGS      CLEAR     59  55  88 CALM      30.05S
CHAMBERLAIN    CLEAR     64  63  97 E3        30.03S
HURON          CLEAR     66  63  90 S7        30.01R
MADISON        FAIR      57  57 100 SE5       30.04S
MITCHELL       CLEAR     64  62  93 S7        30.03S
SIOUX FALLS    PTCLDY    58  56  93 CALM      30.03S
WINNER         FAIR      66  61  84 S7        30.04R
YANKTON        CLEAR     57  55  94 NW5       30.03R
$$

MNZ071-072-080-081-089-090-097-098-290600-
SOUTHWEST MINNESOTA

CITY           SKY/WX    TMP DP  RH WIND       PRES   REMARKS
FAIRMONT       CLOUDY    59  54  82 NE5       30.01S
JACKSON        CLOUDY    59  57  94 NE6       30.03S
LUVERNE        CLEAR     57  54  88 CALM      30.03F
MARSHALL       CLEAR     55  52  88 SW5       30.04R
MONTEVIDEO     CLEAR     59  57  94 S6        30.04S
PIPESTONE      CLEAR     57  55  94 CALM      30.04R
REDWOOD FALLS  CLEAR     58  56  93 CALM      30.03S
TRACY          CLEAR     58  56  91 CALM      30.04S
WINDOM         MOCLDY    55  54  94 CALM      30.03S
WORTHINGTON    CLOUDY    59  55  88 CALM      30.02F
$$

IAZ001>003-012>014-020>022-031-032-NEZ013-014-SDZ071-290600-
NORTHWEST IOWA

CITY           SKY/WX    TMP DP  RH WIND       PRES   REMARKS
DENISON        CLOUDY    61  61 100 N5G13     29.95S
ESTHERVILLE    CLOUDY    58  57  97 NE6       30.00S
LE MARS        CLOUDY    61  59  94 N6        30.02S
SIOUX CITY     CLOUDY    63  57  81 N7        30.00S
SPENCER        CLOUDY    60  56  86 N8        30.00F
$$

ABBREVIATIONS USED IN REMARKS
   TC - TEMPERATURE IN CELSIUS
  WCI - WIND CHILL INDEX
   HX - HEAT INDEX
  VSB - VISIBILITY




USA.gov is the U.S. government's official web portal to all federal, state and local government web resources and services.